Location: Pace/Milton
(30.6162°N, 87.1503°W)
Time: 07:20:06
(UTC-06:00)

Hubble Space Telescope - Pass Details

Date: 01 December 2021
Orbit: 535 x 538 km, 28.5° (Epoch: 23 January)

Event Time Altitude Azimuth Distance (km) Brightness Sun altitude
Exits shadow 06:00:33 - 267° (W) 2,156 3.3 -6.3°
Reaches altitude 10° 06:01:36 10° 262° (W) 1,774 2.9 -6.1°
Maximum altitude 06:05:18 33° 197° (SSW) 907 2.0 -5.4°
Drops below altitude 10° 06:09:00 10° 133° (SE) 1,773 4.8 -4.7°
Sets 06:11:24 0° 123° (ESE) 2,662 6.6 -4.2°
